EW8735 Weather Reports


time (UTC)temp
F
wind
direction
speed
knots
gust
knots
rain 1hr
in
rain 24hr
in
rain mn
in
humidity
%
barometer
mb
20260904190048 66 318 0.0 0.0 0.00 0.00 0.00 47 1010.7
20260904184544 65 318 0.0 0.0 0.00 0.00 0.00 47 1010.9
20260904183101 67 318 0.0 0.0 0.00 0.00 0.00 45 1010.9
20260904181543 66 316 0.0 0.0 0.00 0.00 0.00 46 1011.1
20260904180136 64 312 0.0 0.0 0.00 0.00 0.00 49 1011.1
20260904174534 63 312 0.0 0.0 0.00 0.00 0.00 49 1011.2
20260904173030 63 312 0.0 0.0 0.00 0.00 0.00 51 1011.1
20260904171526 61 313 0.0 0.0 0.00 0.00 0.00 55 1011.0
20260904170025 60 313 0.0 0.0 0.00 0.00 0.00 57 1011.2
20260904164520 59 313 0.0 0.0 0.00 0.01 0.00 61 1011.1
20260904163017 57 313 0.0 0.0 0.00 0.01 0.00 63 1010.8
20260904161513 56 313 0.0 0.0 0.00 0.01 0.00 65 1010.7
20260904160008 54 313 0.0 0.0 0.00 0.01 0.00 70 1010.8
20260904154507 51 313 0.0 0.0 0.00 0.01 0.00 75 1010.9
20260904153006 51 283 0.0 0.0 0.00 0.01 0.00 77 1010.8
20260904151508 49 281 0.0 0.0 0.00 0.01 0.00 78 1010.6
20260904150005 47 338 0.0 0.0 0.00 0.01 0.00 80 1010.7
20260904144503 46 329 0.0 0.0 0.00 0.01 0.00 83 1010.6
20260904143004 45 192 0.0 0.0 0.00 0.01 0.00 84 1010.5
20260904141600 43 192 0.0 0.0 0.00 0.01 0.00 82 1010.3
20260904140059 44 204 0.0 0.0 0.00 0.01 0.00 81 1010.1
20260904134559 45 204 0.0 0.0 0.00 0.01 0.00 79 1009.8
20260904133054 45 204 0.0 0.0 0.00 0.01 0.00 79 1009.7
20260904131601 44 204 0.0 0.0 0.00 0.01 0.00 81 1009.8
20260904130052 44 204 0.0 0.0 0.00 0.01 0.00 81 1009.7
20260904124551 44 204 0.0 0.0 0.00 0.01 0.00 81 1009.5
20260904123049 44 204 0.0 0.0 0.00 0.01 0.00 81 1009.5
20260904121547 44 204 0.0 0.0 0.00 0.01 0.00 79 1009.4
20260904120044 45 204 0.0 0.0 0.00 0.01 0.00 81 1009.3
20260904114541 46 204 0.0 0.0 0.00 0.01 0.00 79 1009.0
20260904113043 47 204 0.0 0.0 0.00 0.01 0.00 77 1008.9
20260904111538 47 204 0.0 0.0 0.00 0.01 0.00 77 1008.7
20260904110032 48 204 0.0 0.0 0.00 0.01 0.00 75 1008.5
20260904104530 49 204 0.0 0.0 0.00 0.02 0.00 72 1008.5
20260904103027 49 203 0.0 0.0 0.00 0.02 0.00 72 1008.3
20260904101525 50 201 0.0 0.0 0.00 0.02 0.00 70 1007.9
20260904100028 50 205 0.0 0.0 0.00 0.02 0.00 71 1007.5
20260904094532 49 205 0.0 0.0 0.00 0.08 0.00 73 1007.6
20260904093022 50 205 0.0 0.0 0.00 0.08 0.00 72 1007.8
20260904091520 50 205 0.0 0.0 0.00 0.08 0.00 71 1007.7
20260904090019 50 205 0.0 0.0 0.00 0.08 0.00 69 1007.7
20260904084516 50 205 0.0 0.0 0.00 0.09 0.00 68 1007.7
20260904083027 51 205 0.0 0.0 0.00 0.09 0.00 66 1007.4
20260904081512 51 205 0.0 0.0 0.00 0.09 0.00 65 1007.2
20260904080009 52 205 0.0 0.0 0.00 0.09 0.00 63 1007.3
20260904074506 53 205 0.0 0.0 0.00 0.09 0.00 62 1007.1
20260904073003 53 137 0.0 0.0 0.00 0.09 0.00 59 1006.8
20260904071501 53 94 0.0 0.0 0.00 0.09 0.00 60 1006.8
20260904070059 53 110 0.0 0.0 0.00 0.09 0.00 60 1006.7
20260904064601 54 114 0.0 0.0 0.00 0.18 0.09 59 1006.7
20260904063106 54 130 0.0 0.0 0.00 0.18 0.09 59 1006.7
20260904061557 54 121 0.0 0.0 0.00 0.18 0.09 59 1006.8
20260904060105 54 133 0.0 0.0 0.00 0.18 0.09 60 1006.8
20260904054628 54 135 0.0 0.0 0.00 0.24 0.09 61 1006.7
20260904053057 54 130 0.0 0.0 0.00 0.24 0.09 61 1006.7
20260904051556 54 139 0.0 0.0 0.00 0.24 0.09 61 1006.8
20260904050055 55 127 0.0 0.0 0.00 0.24 0.09 61 1006.9
20260904044555 55 124 0.0 0.0 0.00 0.28 0.09 59 1007.1
20260904043100 56 134 0.0 0.0 0.00 0.28 0.09 57 1006.7
20260904041601 56 133 0.0 0.0 0.00 0.28 0.09 56 1006.5
20260904040053 56 134 0.0 0.0 0.00 0.28 0.09 56 1006.5
20260904034553 57 131 0.0 0.0 0.00 0.33 0.09 55 1006.4
20260904033053 57 122 0.0 0.0 0.00 0.33 0.09 54 1006.2
20260904031558 57 135 0.0 0.0 0.00 0.33 0.09 54 1006.3
20260904030052 57 90 0.0 0.0 0.00 0.33 0.09 54 1006.0
20260904024557 58 127 0.0 0.0 0.00 0.33 0.09 52 1005.9
20260904023052 58 117 0.0 0.0 0.00 0.33 0.09 52 1006.0
20260904021552 58 136 0.0 0.0 0.00 0.33 0.09 52 1006.0
20260904020050 60 146 0.0 0.0 0.00 0.33 0.09 49 1006.0
20260904014614 61 17 0.0 0.0 0.00 0.33 0.09 58 1005.8
20260904013105 60 16 0.0 0.0 0.00 0.33 0.09 60 1005.8
20260904011548 61 338 0.0 0.0 0.00 0.33 0.09 60 1006.0
20260904010050 61 338 0.0 0.0 0.00 0.33 0.09 58 1006.1
20260904004547 62 338 0.0 0.0 0.00 0.33 0.09 57 1005.9
20260904003046 62 338 0.0 0.0 0.00 0.33 0.09 56 1005.8
20260904001546 62 338 0.0 0.0 0.00 0.33 0.09 55 1005.8
20260904000048 63 305 0.0 0.0 0.00 0.33 0.09 51 1006.1
20260903234547 63 299 0.0 0.0 0.00 0.33 0.09 52 1006.2
20260903233045 63 293 0.0 0.0 0.00 0.33 0.09 50 1006.2
20260903231546 64 197 0.0 0.0 0.00 0.33 0.09 49 1006.4
20260903230044 64 197 0.0 0.0 0.00 0.33 0.09 50 1006.3
20260903224544 64 193 0.0 0.0 0.00 0.33 0.09 49 1006.5
20260903223053 64 201 0.0 0.0 0.00 0.33 0.09 49 1006.7
20260903221542 64 201 0.0 0.0 0.00 0.33 0.09 51 1006.7
20260903220042 64 258 0.0 0.0 0.00 0.33 0.09 48 1006.5
20260903214543 64 258 0.0 0.0 0.00 0.33 0.09 51 1006.6
20260903213044 64 258 0.0 0.0 0.00 0.33 0.09 49 1007.0
20260903211557 64 256 0.0 0.0 0.00 0.33 0.09 48 1007.3
20260903210040 64 255 0.0 0.0 0.00 0.33 0.09 48 1007.1
20260903204539 64 254 0.0 0.0 0.00 0.33 0.09 48 1007.2
20260903203040 64 254 0.0 0.0 0.00 0.33 0.09 49 1007.6
20260903201536 63 254 0.0 0.0 0.00 0.33 0.09 50 1007.7
20260903200033 62 254 0.0 0.0 0.00 0.33 0.09 49 1007.8
20260903194533 62 254 0.0 0.0 0.00 0.33 0.09 50 1008.0
20260903193031 63 254 0.0 0.0 0.00 0.33 0.09 50 1007.7
20260903191531 62 253 0.0 0.0 0.00 0.33 0.09 51 1007.9